TimeAKST,TemperatureF,Dew PointF,Humidity,Sea Level PressureIn,VisibilityMPH,Wind Direction,Wind SpeedMPH,Gust SpeedMPH,PrecipitationIn,Events,Conditions,WindDirDegrees,DateUTC
12:53 AM,33.1,23.0,66,29.86,10.0,ENE,3.5,-,N/A,,Overcast,60,2013-11-07 09:53:00
1:53 AM,34.0,23.0,64,29.84,10.0,ENE,4.6,-,N/A,,Overcast,60,2013-11-07 10:53:00
3:53 AM,35.1,24.1,64,29.78,10.0,Calm,Calm,-,N/A,,Overcast,0,2013-11-07 12:53:00
4:53 AM,35.1,26.1,70,29.76,10.0,Calm,Calm,-,N/A,,Overcast,0,2013-11-07 13:53:00
5:53 AM,37.0,26.1,65,29.75,10.0,NE,3.5,-,N/A,,Overcast,40,2013-11-07 14:53:00
6:53 AM,39.0,28.0,65,29.73,10.0,ENE,6.9,-,N/A,,Overcast,60,2013-11-07 15:53:00
7:53 AM,39.0,30.9,73,29.72,10.0,NE,3.5,-,N/A,,Overcast,50,2013-11-07 16:53:00
8:53 AM,39.0,30.0,70,29.70,10.0,NE,4.6,-,N/A,,Overcast,40,2013-11-07 17:53:00
9:53 AM,41.0,28.9,62,29.70,10.0,NNE,3.5,-,N/A,,Overcast,20,2013-11-07 18:53:00
10:53 AM,41.0,28.9,62,29.69,10.0,Calm,Calm,-,N/A,,Overcast,0,2013-11-07 19:53:00
11:53 AM,41.0,30.0,65,29.70,10.0,NE,8.1,-,N/A,,Overcast,50,2013-11-07 20:53:00
12:53 PM,41.0,28.9,62,29.68,10.0,ENE,10.4,-,N/A,,Overcast,70,2013-11-07 21:53:00
1:53 PM,39.9,30.0,68,29.68,10.0,ENE,12.7,-,N/A,,Overcast,70,2013-11-07 22:53:00
2:53 PM,39.9,30.0,68,29.68,10.0,ENE,10.4,-,N/A,,Overcast,60,2013-11-07 23:53:00
3:53 PM,41.0,30.9,67,29.69,10.0,NE,6.9,-,N/A,,Overcast,50,2013-11-08 00:53:00
4:53 PM,39.0,30.0,70,29.71,10.0,NE,8.1,-,N/A,,Overcast,40,2013-11-08 01:53:00
5:53 PM,37.9,28.9,70,29.73,10.0,ENE,12.7,-,N/A,,Overcast,60,2013-11-08 02:53:00
6:53 PM,37.0,28.0,70,29.75,10.0,ENE,8.1,-,N/A,,Overcast,70,2013-11-08 03:53:00
7:53 PM,36.0,27.0,70,29.78,10.0,NE,4.6,-,N/A,,Overcast,50,2013-11-08 04:53:00
8:53 PM,36.0,26.1,67,29.81,10.0,Calm,Calm,-,N/A,,Overcast,0,2013-11-08 05:53:00
9:53 PM,36.0,26.1,67,29.83,10.0,Calm,Calm,-,N/A,,Mostly Cloudy,0,2013-11-08 06:53:00
10:53 PM,33.1,25.0,72,29.86,10.0,NE,3.5,-,N/A,,Overcast,50,2013-11-08 07:53:00
11:53 PM,33.1,24.1,70,29.88,10.0,ENE,4.6,-,N/A,,Overcast,60,2013-11-08 08:53:00